TimeCST,TemperatureF,Dew PointF,Humidity,Sea Level PressureIn,VisibilityMPH,Wind Direction,Wind SpeedMPH,Gust SpeedMPH,PrecipitationIn,Events,Conditions,WindDirDegrees,DateUTC
12:13 AM,35.6,30.2,81,30.08,10.0,SSE,6.9,-,N/A,,Clear,160,2012-11-08 06:13:00
12:33 AM,35.6,30.2,81,30.08,10.0,SSE,6.9,-,N/A,,Clear,160,2012-11-08 06:33:00
1:12 AM,35.6,30.2,81,30.07,10.0,SSE,10.4,-,N/A,,Clear,160,2012-11-08 07:12:00
1:53 AM,35.6,30.2,81,30.05,10.0,SE,8.1,-,N/A,,Clear,140,2012-11-08 07:53:00
2:13 AM,35.6,30.2,81,30.05,10.0,SE,8.1,-,N/A,,Clear,140,2012-11-08 08:13:00
2:33 AM,35.6,30.2,81,30.04,10.0,SE,9.2,-,N/A,,Clear,140,2012-11-08 08:33:00
2:53 AM,35.6,30.2,81,30.04,10.0,SE,9.2,-,N/A,,Clear,140,2012-11-08 08:53:00
3:13 AM,35.6,32.0,87,30.03,10.0,SSE,8.1,-,N/A,,Clear,150,2012-11-08 09:13:00
3:33 AM,35.6,30.2,81,30.03,10.0,SE,8.1,-,N/A,,Clear,140,2012-11-08 09:33:00
3:53 AM,35.6,32.0,87,30.01,10.0,SE,9.2,-,N/A,,Clear,140,2012-11-08 09:53:00
4:13 AM,35.6,32.0,87,30.00,10.0,SE,10.4,-,N/A,,Clear,140,2012-11-08 10:13:00
4:33 AM,35.6,30.2,81,30.00,10.0,SSE,10.4,-,N/A,,Clear,150,2012-11-08 10:33:00
5:13 AM,39.2,32.0,75,30.00,10.0,SSE,11.5,-,N/A,,Clear,160,2012-11-08 11:13:00
5:33 AM,39.2,32.0,75,29.99,10.0,SSE,11.5,-,N/A,,Clear,150,2012-11-08 11:33:00
5:53 AM,39.2,32.0,75,29.99,10.0,SSE,10.4,-,N/A,,Clear,150,2012-11-08 11:53:00
6:13 AM,39.2,32.0,75,29.98,10.0,SSE,10.4,-,N/A,,Clear,150,2012-11-08 12:13:00
6:53 AM,39.2,32.0,75,29.97,10.0,SSE,11.5,-,N/A,,Clear,150,2012-11-08 12:53:00
7:13 AM,39.2,32.0,75,29.98,10.0,SSE,16.1,21.9,N/A,,Clear,160,2012-11-08 13:13:00
7:33 AM,41.0,32.0,70,29.98,10.0,SSE,17.3,-,N/A,,Clear,160,2012-11-08 13:33:00
7:52 AM,41.0,32.0,70,29.98,10.0,SSE,15.0,21.9,N/A,,Clear,160,2012-11-08 13:52:00
8:13 AM,41.0,32.0,70,29.99,10.0,SSE,12.7,-,N/A,,Clear,160,2012-11-08 14:13:00
8:33 AM,42.8,32.0,66,29.99,10.0,South,18.4,24.2,N/A,,Clear,170,2012-11-08 14:33:00
8:53 AM,44.6,33.8,66,29.99,10.0,SSE,16.1,24.2,N/A,,Clear,160,2012-11-08 14:53:00
9:13 AM,44.6,33.8,66,29.98,10.0,SSE,18.4,25.3,N/A,,Clear,160,2012-11-08 15:13:00
9:33 AM,44.6,33.8,66,29.98,10.0,South,17.3,25.3,N/A,,Clear,170,2012-11-08 15:33:00
9:53 AM,44.6,33.8,66,29.98,10.0,SSE,15.0,-,N/A,,Clear,160,2012-11-08 15:53:00
10:33 AM,48.2,35.6,62,29.98,10.0,South,18.4,-,N/A,,Clear,170,2012-11-08 16:33:00
10:53 AM,50.0,37.4,62,29.97,10.0,South,15.0,23.0,N/A,,Clear,180,2012-11-08 16:53:00
11:13 AM,51.8,37.4,58,29.96,10.0,South,20.7,27.6,N/A,,Clear,180,2012-11-08 17:13:00
11:33 AM,53.6,37.4,54,29.96,10.0,South,19.6,25.3,N/A,,Clear,190,2012-11-08 17:33:00
11:53 AM,53.6,37.4,54,29.95,10.0,South,23.0,26.5,N/A,,Clear,190,2012-11-08 17:53:00
12:13 PM,53.6,35.6,51,29.95,10.0,South,18.4,25.3,N/A,,Clear,190,2012-11-08 18:13:00
12:33 PM,55.4,37.4,51,29.95,10.0,South,18.4,24.2,N/A,,Clear,190,2012-11-08 18:33:00
12:53 PM,55.4,35.6,47,29.95,10.0,SW,20.7,25.3,N/A,,Clear,220,2012-11-08 18:53:00
1:13 PM,55.4,35.6,47,29.94,10.0,SSW,17.3,25.3,N/A,,Clear,210,2012-11-08 19:13:00
1:33 PM,55.4,37.4,51,29.94,10.0,SSW,15.0,-,N/A,,Clear,200,2012-11-08 19:33:00
1:53 PM,55.4,37.4,51,29.94,10.0,SSW,15.0,-,N/A,,Clear,210,2012-11-08 19:53:00
2:13 PM,59.0,37.4,45,29.93,10.0,SSW,15.0,-,N/A,,Clear,210,2012-11-08 20:13:00
2:33 PM,55.4,37.4,51,29.93,10.0,SSW,13.8,19.6,N/A,,Clear,210,2012-11-08 20:33:00
2:53 PM,55.4,37.4,51,29.94,10.0,SSW,12.7,-,N/A,,Clear,200,2012-11-08 20:53:00
3:13 PM,55.4,37.4,51,29.94,10.0,SSW,10.4,-,N/A,,Clear,200,2012-11-08 21:13:00
3:33 PM,55.4,37.4,51,29.94,10.0,SSW,12.7,-,N/A,,Clear,200,2012-11-08 21:33:00
3:53 PM,55.4,37.4,51,29.94,10.0,South,11.5,-,N/A,,Clear,180,2012-11-08 21:53:00
4:13 PM,55.4,37.4,51,29.95,10.0,South,6.9,-,N/A,,Clear,180,2012-11-08 22:13:00
4:33 PM,53.6,37.4,54,29.95,10.0,South,6.9,-,N/A,,Clear,190,2012-11-08 22:33:00
4:53 PM,51.8,37.4,58,29.95,10.0,South,4.6,-,N/A,,Clear,170,2012-11-08 22:53:00
5:14 PM,50.0,37.4,62,29.95,10.0,Calm,Calm,-,N/A,,Clear,0,2012-11-08 23:14:00
5:33 PM,48.2,37.4,66,29.96,10.0,Calm,Calm,-,N/A,,Clear,0,2012-11-08 23:33:00
5:53 PM,48.2,37.4,66,29.96,10.0,Calm,Calm,-,N/A,,Clear,0,2012-11-08 23:53:00
6:13 PM,46.4,35.6,66,29.96,10.0,Calm,Calm,-,N/A,,Clear,0,2012-11-09 00:13:00
6:33 PM,44.6,33.8,66,29.97,10.0,Calm,Calm,-,N/A,,Clear,0,2012-11-09 00:33:00
6:52 PM,44.6,35.6,71,29.97,10.0,NE,4.6,-,N/A,,Clear,50,2012-11-09 00:52:00
7:13 PM,42.8,35.6,76,29.97,10.0,ENE,3.5,-,N/A,,Clear,70,2012-11-09 01:13:00
7:33 PM,41.0,33.8,76,29.97,10.0,NNE,5.8,-,N/A,,Clear,20,2012-11-09 01:33:00
7:53 PM,41.0,35.6,81,29.97,10.0,NNE,5.8,-,N/A,,Clear,30,2012-11-09 01:53:00
8:13 PM,41.0,33.8,76,29.98,10.0,NE,4.6,-,N/A,,Clear,50,2012-11-09 02:13:00
8:33 PM,41.0,33.8,76,29.98,10.0,East,6.9,-,N/A,,Clear,90,2012-11-09 02:33:00
8:53 PM,41.0,35.6,81,29.98,10.0,East,5.8,-,N/A,,Clear,80,2012-11-09 02:53:00
9:13 PM,41.0,33.8,76,29.98,10.0,ENE,4.6,-,N/A,,Clear,70,2012-11-09 03:13:00
9:33 PM,41.0,35.6,81,29.98,10.0,ENE,4.6,-,N/A,,Clear,70,2012-11-09 03:33:00
9:53 PM,41.0,35.6,81,29.98,10.0,East,3.5,-,N/A,,Clear,80,2012-11-09 03:53:00
10:13 PM,42.8,35.6,76,29.99,10.0,ENE,4.6,-,N/A,,Clear,70,2012-11-09 04:13:00
10:33 PM,42.8,35.6,76,29.99,10.0,ENE,4.6,-,N/A,,Clear,60,2012-11-09 04:33:00
10:52 PM,44.6,35.6,71,29.99,10.0,ENE,4.6,-,N/A,,Clear,60,2012-11-09 04:52:00
11:13 PM,44.6,35.6,71,29.99,10.0,East,4.6,-,N/A,,Clear,80,2012-11-09 05:13:00
11:33 PM,41.0,33.8,76,29.99,10.0,ENE,4.6,-,N/A,,Clear,70,2012-11-09 05:33:00
11:53 PM,41.0,32.0,70,29.99,10.0,ENE,4.6,-,N/A,,Clear,60,2012-11-09 05:53:00